Погода в Барнауле

Россия / Алтайский край     53°21′18″N   83°46′11″E
темп.,
°C
ветер,
м/с
пор.,
м/с
влажн.,
%
обл.,
%
осадки,
мм/ч
давл.,
гПа
погр.,
м
2 августа, пн
пн201:00+17ю35647 0.0 100872
04:00+16ююз3360100 0.0 100733
07:00+17ю245798 0.0 100791
10:00+24ююз4742100 0.0 1006406
13:00+26ю353999 0.0 1006876
16:00+28зюз353449 0.0 10051311
19:00+27зсз13475 0.2 1005590
22:00+20юв227358 0.4 100522
3 августа, вт
вт301:00+16ююз249797 2.0 100780
04:00+16з118950 0.0 100611
07:00+17з1287100 0.0 100784
10:00+22сз3465100 0.0 1008501
13:00+27з474395 0.4 10081911
16:00+29з463199 0.0 10063081
19:00+24ююз2252100 0.2 1007207
22:00+19юз2381100 0.3 100850
4 августа, ср
ср401:00+17зсз1182100 0.3 100816
04:00+16зсз117956 0.0 100811
07:00+16ссз1176100 0.0 100813
10:00+20юз1161100 0.0 1008252
13:00+26ююз133991 0.0 10071536
16:00+25сз234199 0.0 1006525
19:00+17ссз4875100 0.2 1006177
22:00+15юв118594 0.3 100711
5 августа, чт
чт501:00+14зюз1186100 0.3 100612
04:00+15ссз1186100 0.3 100511
07:00+15сз129498 1.8 100666
10:00+17с228598 1.2 1006476
13:00+16сз3391100 1.8 1006279
16:00+19сз337537 0.2 1006695
19:00+19сз4467100 0.3 1006776
22:00+15з228883 0.0 100626
6 августа, пт
пт601:00+15зюз2395100 0.3 100676
04:00+14з2398100 2.7 100683
07:00+14з259698 3.6 1007176
10:00+16зсз2694100 2.0 1008318
13:00+17сз139192 3.9 1008268
16:00+23з346065 0.3 10081022
19:00+23з345599 0.4 10081158
22:00+18юз227988 0.2 100814